Location: Goettingen
(51.5300°N, 9.9433°E)
Time: 20:15:53
(UTC+02:00)

ISS - Pass Details

Date: 21 September 2021
Orbit: 419 x 423 km, 51.6° (Epoch: 20 September)

Event Time Altitude Azimuth Distance (km) Brightness Sun altitude
Rises 21:43:15 0° 264° (W) 2,365 0.9 -22.0°
Reaches altitude 10° 21:45:21 10° 264° (W) 1,502 -0.3 -22.2°
Enters shadow 21:47:52 48° 265° (W) 562 -2.9 -22.6°
